[[{"header":{"parameterUnit":"m.s-1","parameterCategory":1,"la1":30.2991,"la2":30.254,"lo1":-89.0895,"lo2":-89.0444,"dy":0.0017,"dx":0.0017,"nx":28,"ny":28,"refTime":"2025-07-10T09:00:00:Z","depth":0,"parameterNumber":2,"parameterNumberName":"U-component_of_WINDS"},"data":[0,0,0,0,0,0,0,0,0,0,0,0,0,0,0,0,0,0,0,0,0,0,0,0,0,0,0,0,0,0,0,0,0,0,0,0,0,0,0,0,0,0,0,0,0,0,0,0,0,0,0,0,0,0,0,0,0,0,3.0963,3.0965,0,3.1143,3.1145,3.1147,3.1149,3.1147,3.1145,3.1142,3.1329,3.1336,3.1343,0,0,0,0,0,0,0,0,0,0,0,0,0,3.0624,3.063,3.0963,3.0965,3.0968,3.1142,3.1145,3.1147,3.1149,3.1147,3.1144,3.1141,3.1327,3.1335,3.1343,0,0,0,0,0,0,0,0,0,0,0,0,0,3.0784,3.0632,3.0963,3.099,3.0994,3.1142,3.1145,3.1148,3.115,3.1147,3.1143,3.114,3.1324,3.1334,3.1345,3.1478,0,0,3.1377,3.1382,0,0,0,0,0,0,0,0,3.0775,3.0797,3.0984,3.0988,3.0993,3.112,3.1094,3.1259,3.1151,3.1091,3.1142,3.1138,3.1262,3.1278,3.1319,3.1487,3.1495,3.1378,3.1384,3.1389,3.1392,0,0,0,0,0,0,0,3.0764,3.0789,3.1034,3.0986,3.0992,3.0993,3.1012,3.1125,3.1194,3.1096,3.1096,3.1117,3.1264,3.1309,3.1323,3.1498,3.1378,3.1387,3.1394,3.1398,3.1783,3.1787,0,0,0,0,0,0,3.0747,3.078,3.1029,3.104,3.0873,3.1002,3.1023,3.1083,3.1192,3.1206,3.112,3.1117,3.1292,3.1311,3.133,3.1492,3.1389,3.1399,3.1405,3.1779,3.1784,3.1788,0,0,0,0,0,0,3.074,3.0769,3.1021,3.091,3.0942,3.1012,3.1078,3.1088,3.1132,3.1211,3.1223,3.1153,3.129,3.1315,3.1441,3.1499,3.1404,3.1413,3.1775,3.1781,3.1786,3.1818,0,0,0,0,0,0,3.073,3.0767,3.0818,3.0911,3.0948,3.1129,3.1082,3.1094,3.115,3.1148,3.1245,3.1258,3.129,3.1425,3.1451,3.1512,3.1422,3.177,3.1777,3.1784,3.1812,3.1824,3.1835,0,0,0,0,0,3.0718,3.0821,3.0821,3.0851,3.1013,3.1132,3.1153,3.1187,3.1155,3.1207,3.1257,3.1254,3.1488,3.1438,3.1468,3.1532,3.1766,3.1775,3.1783,3.1807,3.1822,3.1834,0,0,0,0,0,0,3.0735,3.0834,3.0834,3.097,3.1043,3.1132,3.1199,3.1202,3.1286,3.128,3.1319,3.1341,3.1466,3.1512,3.1454,3.1666,3.1623,3.1638,3.1631,3.1646,3.1657,3.1643,3.143,0,0,0,0,0,3.0754,3.0841,3.0924,3.1036,3.1072,3.1129,3.1182,3.1202,3.1279,3.1309,3.1369,3.1444,3.1534,3.1593,3.1681,3.1819,3.184,3.1878,3.1889,3.1898,3.191,3.1985,3.2003,3.1816,3.1816,3.1816,0,0,3.0795,3.086,3.0913,3.1041,3.1099,3.1188,3.1155,3.1252,3.1318,3.1325,3.1446,3.1492,3.1579,3.1711,3.1772,3.1753,3.1966,3.1909,3.1916,3.1923,3.1996,3.2013,3.2029,3.1822,3.1821,3.182,0,0,3.0915,3.0973,3.1072,3.1131,3.1219,3.1256,3.128,3.1369,3.1399,3.1522,3.1527,3.1608,3.1763,3.1824,3.1875,3.2017,3.2016,3.2044,3.2102,3.2175,3.219,3.2203,3.2251,3.2268,3.2056,3.2057,3.2057,0,3.0955,3.1089,3.1123,3.1219,3.1274,3.1283,3.1383,3.1439,3.1551,3.1589,3.1566,3.1759,3.1819,3.1964,3.1998,3.204,3.2068,3.2033,3.2185,3.2198,3.2211,3.2258,3.2276,3.2059,3.2059,3.2059,3.2058,0,3.1133,3.1226,3.1296,3.1402,3.1466,3.1564,3.1612,3.1672,3.1686,3.1726,3.185,3.1921,3.2022,3.2059,3.2074,3.2206,3.2191,3.2176,3.2134,3.2231,3.2275,3.2294,3.2063,3.2062,3.2061,3.2061,0,0,3.1268,3.1391,3.1416,3.1463,3.156,3.1633,3.1731,3.1829,3.1879,3.1957,3.2039,3.2169,3.2155,3.2213,3.2236,3.23,3.2405,3.2277,3.2279,3.2296,3.2552,3.2561,3.2582,3.2406,3.241,3.2412,3.2544,0,3.1397,3.157,3.1602,3.1753,3.1838,3.1847,3.1932,3.2001,3.2041,3.212,3.2164,3.2255,3.2231,3.2265,3.2329,3.2378,3.2456,3.237,3.2482,3.2486,3.2458,3.2605,3.2616,3.2737,3.2562,3.2565,3.2567,0,3.1571,3.165,3.1808,3.1892,3.1929,3.2005,3.2096,3.2172,3.225,3.2274,3.2338,3.2353,3.2455,3.2409,3.2549,3.2489,3.2537,3.2569,3.2574,3.2585,3.2531,3.2618,3.2777,3.2794,3.2596,3.2593,3.2591,0,3.1651,3.1798,3.1911,3.1952,3.2053,3.2105,3.215,3.2225,3.2281,3.2361,3.2397,3.2489,3.2539,3.2609,3.2648,3.2612,3.2785,3.2743,3.2808,3.2807,3.2843,3.2839,3.3009,3.2877,3.2877,3.2876,3.2876,0,3.179,3.1886,3.1948,3.2017,3.2125,3.2161,3.2267,3.2311,3.2377,3.2456,3.247,3.2543,3.2591,3.2671,3.2703,3.2813,3.2836,3.2858,3.2865,3.2856,3.2853,3.2887,3.2879,3.2881,3.288,3.2879,3.2878,0,3.1897,3.1942,3.2066,3.2151,3.2174,3.225,3.2323,3.2391,3.243,3.2528,3.2554,3.2616,3.2711,3.2757,3.2876,3.2897,3.3021,3.3023,3.2994,3.2996,3.3057,3.305,3.3253,3.3281,3.3132,3.3133,3.3134,0,3.1982,3.2056,3.2148,3.2201,3.2246,3.2331,3.2388,3.2427,3.2485,3.2578,3.2635,3.273,3.2808,3.2959,3.3015,3.3105,3.3109,3.3174,3.3123,3.311,3.3107,3.3101,3.3108,3.3182,3.3184,3.3185,3.3186,0,3.2128,3.2146,3.2226,3.2314,3.238,3.2452,3.2523,3.2565,3.2615,3.268,3.2776,3.2837,3.2956,3.305,3.3144,3.3191,3.3197,3.3202,3.3221,3.3211,3.319,3.32,3.3016,3.3197,3.3196,3.3195,3.3194,3.3194,3.2225,3.229,3.2364,3.2453,3.2509,3.2574,3.2641,3.2688,3.2769,3.2868,3.2887,3.2988,3.3063,3.319,3.3239,3.332,3.3305,3.3334,3.3341,3.3346,3.3348,3.3179,3.3337,3.3337,3.3337,3.3337,3.3336,0,3.2369,3.2417,3.2498,3.2595,3.2664,3.2663,3.274,3.2798,3.2887,3.2956,3.3032,3.3142,3.3232,3.3295,3.3387,3.3439,3.3444,3.3462,3.3457,3.3468,3.3357,3.333,3.3456,3.3456,3.3456,3.3456,3.3456,3.3456,3.2452,3.2561,3.2588,3.2725,3.2773,3.2871,3.2915,3.2975,3.303,3.3151,3.3226,3.3265,3.3332,3.3428,3.3511,3.3527,3.356,3.3577,3.3593,3.3488,3.3476,3.3464,3.3438,3.3585,3.3585,3.3696,3.3697,3.3698]},{"header":{"parameterUnit":"m.s-1","parameterCategory":1,"la1":30.2991,"la2":30.254,"lo1":-89.0895,"lo2":-89.0444,"dy":0.0017,"dx":0.0017,"nx":28,"ny":28,"refTime":"2025-07-10T09:00:00:Z","depth":0,"parameterNumber":3,"parameterNumberName":"V-component_of_WINDS"},"data":[0,0,0,0,0,0,0,0,0,0,0,0,0,0,0,0,0,0,0,0,0,0,0,0,0,0,0,0,0,0,0,0,0,0,0,0,0,0,0,0,0,0,0,0,0,0,0,0,0,0,0,0,0,0,0,0,0,0,0.1252,0.1252,0,0.1282,0.1283,0.1283,0.123,0.1228,0.1227,0.1225,0.1263,0.1265,0.1268,0,0,0,0,0,0,0,0,0,0,0,0,0,0.1154,0.1156,0.1252,0.1252,0.1253,0.1282,0.1283,0.1283,0.123,0.1228,0.1226,0.1224,0.1262,0.1265,0.1268,0,0,0,0,0,0,0,0,0,0,0,0,0,0.1192,0.1157,0.1252,0.123,0.1228,0.1282,0.1283,0.1283,0.1231,0.1228,0.1225,0.1223,0.1261,0.1265,0.1269,0.1348,0,0,0.1281,0.1283,0,0,0,0,0,0,0,0,0.119,0.1196,0.1233,0.1231,0.123,0.1249,0.1262,0.1305,0.1232,0.123,0.1225,0.1222,0.1261,0.1265,0.1277,0.135,0.1351,0.1281,0.1284,0.1286,0.1287,0,0,0,0,0,0,0,0.1187,0.1194,0.1264,0.1233,0.1231,0.122,0.1223,0.127,0.1261,0.123,0.1226,0.123,0.126,0.1273,0.1277,0.1352,0.1281,0.1285,0.1287,0.1289,0.1492,0.1495,0,0,0,0,0,0,0.1187,0.1192,0.1263,0.1265,0.1202,0.1224,0.1227,0.1246,0.126,0.1259,0.1232,0.1228,0.1267,0.1273,0.1278,0.1373,0.1286,0.1289,0.1292,0.149,0.1493,0.1496,0,0,0,0,0,0,0.1185,0.1193,0.1262,0.1228,0.1235,0.1229,0.1251,0.1248,0.1261,0.1262,0.126,0.1247,0.1265,0.1273,0.1331,0.1374,0.1291,0.1295,0.1486,0.1491,0.1495,0.1562,0,0,0,0,0,0,0.1182,0.1193,0.1222,0.1228,0.1237,0.1312,0.1253,0.1251,0.1267,0.1261,0.1275,0.1275,0.1264,0.1325,0.1335,0.1378,0.1298,0.1482,0.1488,0.1493,0.1556,0.1569,0.1579,0,0,0,0,0,0.1179,0.1241,0.1223,0.1232,0.1273,0.1315,0.132,0.1304,0.1271,0.1301,0.1301,0.1275,0.1367,0.1331,0.1342,0.1387,0.1479,0.1486,0.1493,0.1551,0.1566,0.1579,0,0,0,0,0,0,0.1241,0.1241,0.1222,0.1288,0.1301,0.1306,0.1343,0.132,0.1345,0.1339,0.132,0.1324,0.1386,0.1392,0.1352,0.1465,0.1418,0.1427,0.1459,0.1473,0.1484,0.1483,0.1301,0,0,0,0,0,0.1262,0.1294,0.1293,0.1351,0.1359,0.135,0.1368,0.1354,0.1368,0.1374,0.1379,0.1396,0.1428,0.1451,0.1481,0.1556,0.156,0.1592,0.1604,0.1613,0.1622,0.1664,0.1679,0.1518,0.1518,0.1518,0,0,0.1307,0.1311,0.1333,0.1364,0.1373,0.1409,0.1355,0.1395,0.1422,0.1381,0.1436,0.144,0.1458,0.1525,0.1555,0.1532,0.1667,0.1622,0.1629,0.1633,0.1672,0.1687,0.1701,0.1523,0.1522,0.1521,0,0,0.1407,0.1412,0.1462,0.1471,0.1485,0.1478,0.149,0.1498,0.1498,0.1552,0.1522,0.1555,0.1611,0.1625,0.164,0.1745,0.1722,0.1755,0.1816,0.1857,0.1869,0.188,0.192,0.1934,0.1763,0.1764,0.1764,0,0.1462,0.1512,0.1491,0.1533,0.1548,0.151,0.1561,0.1572,0.1596,0.1608,0.1581,0.1651,0.166,0.1731,0.1757,0.1769,0.1784,0.1754,0.1869,0.188,0.189,0.1927,0.1942,0.1768,0.1767,0.1767,0.1766,0,0.158,0.1615,0.1654,0.1676,0.1695,0.1742,0.1729,0.1752,0.1736,0.1733,0.1789,0.1798,0.183,0.1846,0.1831,0.1915,0.19,0.1871,0.1824,0.191,0.1944,0.1958,0.1773,0.1772,0.1771,0.177,0,0,0.1722,0.173,0.1745,0.1754,0.1766,0.1794,0.184,0.1868,0.1889,0.1906,0.1946,0.1994,0.1967,0.1983,0.197,0.2006,0.209,0.1973,0.1973,0.1996,0.2185,0.2209,0.2225,0.2074,0.2077,0.2079,0.2184,0,0.1823,0.1899,0.188,0.1956,0.199,0.1954,0.1994,0.2006,0.2004,0.2034,0.2033,0.2068,0.2029,0.2039,0.2072,0.2073,0.2129,0.2065,0.2113,0.2115,0.2112,0.2243,0.2268,0.2367,0.2198,0.22,0.2201,0,0.1951,0.1971,0.205,0.2056,0.207,0.2106,0.2131,0.2159,0.2173,0.217,0.2188,0.2168,0.2215,0.2165,0.2231,0.2188,0.2207,0.221,0.2214,0.222,0.2165,0.2255,0.2398,0.2414,0.2222,0.2221,0.2219,0,0.2049,0.2096,0.215,0.2159,0.2167,0.2193,0.2199,0.221,0.2228,0.2251,0.2263,0.2292,0.2308,0.2331,0.232,0.2285,0.2389,0.2338,0.239,0.239,0.2415,0.2414,0.2566,0.2423,0.2423,0.2423,0.2423,0,0.2165,0.2215,0.2194,0.2227,0.2283,0.2262,0.2318,0.2319,0.233,0.2364,0.2334,0.2368,0.235,0.2383,0.2375,0.2431,0.2439,0.2439,0.2436,0.2443,0.2443,0.2456,0.245,0.2427,0.2426,0.2425,0.2425,0,0.2285,0.2272,0.2329,0.2331,0.2333,0.2374,0.2378,0.241,0.2404,0.2449,0.2458,0.2451,0.2488,0.2478,0.2519,0.2514,0.2586,0.2574,0.2581,0.2579,0.2631,0.2627,0.2798,0.2821,0.2662,0.2664,0.2665,0,0.236,0.2398,0.2404,0.2424,0.2431,0.2463,0.2481,0.2462,0.2483,0.2501,0.2532,0.2565,0.2592,0.2653,0.2653,0.2684,0.2674,0.2732,0.2679,0.2685,0.2678,0.2677,0.2681,0.2744,0.2745,0.2747,0.2748,0,0.2497,0.2489,0.2515,0.254,0.2562,0.2581,0.2597,0.2616,0.2597,0.2623,0.2659,0.2679,0.2719,0.2754,0.2783,0.279,0.2768,0.2764,0.2778,0.2786,0.2789,0.279,0.2612,0.2761,0.276,0.2759,0.2758,0.2758,0.2599,0.2631,0.264,0.2671,0.268,0.2696,0.2726,0.2724,0.2754,0.2784,0.2771,0.2813,0.2827,0.2863,0.2874,0.2908,0.2886,0.2906,0.2911,0.2917,0.2924,0.2782,0.2913,0.2912,0.2912,0.2912,0.2911,0,0.2735,0.2739,0.2767,0.279,0.2815,0.2787,0.2804,0.2827,0.2864,0.2878,0.2903,0.2946,0.2979,0.2981,0.3013,0.3041,0.3031,0.305,0.3049,0.3051,0.2941,0.2927,0.3057,0.3057,0.3057,0.3057,0.3057,0.3057,0.2809,0.2862,0.2855,0.2914,0.2917,0.2957,0.2969,0.2984,0.2995,0.3043,0.307,0.307,0.308,0.3112,0.3142,0.3142,0.3156,0.318,0.3176,0.3073,0.3059,0.3045,0.3032,0.3182,0.3183,0.3284,0.3285,0.3286]}]]